Location: Herm
(49.4830°N, 2.4500°W)
Time: 05:55:44
(UTC+00:00)

Envisat - Pass Details

Date: 10 October 2022
Orbit: 763 x 765 km, 98.2° (Epoch: 09 December)

Event Time Altitude Azimuth Distance (km) Brightness Sun altitude
Rises 03:56:58 0° 31° (NNE) 3,245 7.1 -32.9°
Reaches altitude 10° 04:00:55 10° 62° (ENE) 2,311 6.3 -32.4°
Maximum altitude 04:02:51 12° 85° (E) 2,165 6.0 -32.1°
Drops below altitude 10° 04:04:48 10° 108° (ESE) 2,304 5.9 -31.9°
Sets 04:08:42 0° 138° (SE) 3,222 6.4 -31.3°
